Regional Weather Roundup
Issued by NWS Mobile, AL

Home | Current Version | Previous Version | Text Only | Print | Product List | Glossary On
Versions: 1 2 3 4 5 6 7 8 9 10 11 12 13 14 15 16 17 18 19 20 21 22 23 24 25 26 27 28 29 30 31 32 33 34 35 36 37 38 39 40 41 42 43 44 45 46 47 48 49 50
000
ASUS44 KMOB 250012
RWRMOB
REGIONAL WEATHER ROUNDUP
NATIONAL WEATHER SERVICE MOBILE AL
700 PM CDT WED MAY 24 2017

NOTE: "FAIR" INDICATES FEW OR NO CLOUDS BELOW 12,000 FEET WITH NO
      SIGNIFICANT WEATHER AND/OR OBSTRUCTIONS TO VISIBILITY.

  * THESE STATIONS ARE PART OF THE UNIVERSITY OF SOUTH ALABAMA
    MESONET AND ARE NOT UNDER NWS OR FAA QUALITY CONTROL.

ALZ061>064-250100-
COASTAL ALABAMA

CITY           SKY/WX    TMP DP  RH WIND       PRES   REMARKS
MOBILE REG APT PTCLDY    72  51  47 W12G18    29.65S
6HR MIN TEMP:  72; 6HR MAX TEMP:  76;

BROOKLEY FIELD PTCLDY    74  54  49 W5        29.65S
6HR MIN TEMP:  74; 6HR MAX TEMP:  78;

USA CAMPUS*      N/A     70  57  64 CALM      29.65R
DOG RIVER*       N/A     73  54  49 W8        30.28R


CITY           SKY/WX    TMP DP  RH WIND       PRES   REMARKS
GULF SHORES    PTCLDY    73  54  50 W8G20     29.63F

$$

ALZ051>060-250100-
INTERIOR SOUTHWEST AND SOUTH CENTRAL ALABAMA

CITY           SKY/WX    TMP DP  RH WIND       PRES   REMARKS
GREENVILLE     MOCLDY    70  52  52 W7        29.60R
6HR MIN TEMP:  70; 6HR MAX TEMP:  78;

EVERGREEN      PTCLDY    71  53  52 W6        29.62R
6HR MIN TEMP:  71; 6HR MAX TEMP:  78;

ATMORE*          N/A     72  54  53 W7        29.65S
ANDALUSIA/OPP  CLEAR     75  50  41 W15       29.60R
6HR MIN TEMP:  75; 6HR MAX TEMP:  83;

ANDALUSIA*       N/A     72  54  53 W6        29.61R
FLORALA APT    CLEAR     72  51  47 VRB3      29.62R
6HR MIN TEMP:  72; 6HR MAX TEMP:  80;

FLORALA*         N/A     73  52  46 SW10      30.19R

$$

FLZ001>006-250100-
WESTERN FLORIDA PANHANDLE

CITY           SKY/WX    TMP DP  RH WIND       PRES   REMARKS
PENSACOLA      CLEAR     76  50  40 W12       29.63R
6HR MIN TEMP:  76; 6HR MAX TEMP:  82;

NAS PENSACOLA  PTCLDY    74  50  42 W7        29.63R
6HR MIN TEMP:  74; 6HR MAX TEMP:  82;

MILTON         PTCLDY    72  51  47 W10       29.62R
6HR MIN TEMP:  72; 6HR MAX TEMP:  81;

WHTNG S FIELD  PTCLDY    75  53  46 NW7       29.63R
6HR MIN TEMP:  75; 6HR MAX TEMP:  83;



CITY           SKY/WX    TMP DP  RH WIND       PRES   REMARKS
JAY*             N/A     72  52  49 W5        29.63S
DUKE FIELD     PTCLDY    75  50  41 W10       29.61R
CRESTVIEW      CLEAR     74  49  41 W10       29.62R
6HR MIN TEMP:  74; 6HR MAX TEMP:  84;

VALPARAISO     PTCLDY    77  46  33 W17G23    29.61R
6HR MIN TEMP:  76; 6HR MAX TEMP:  82;

DESTIN         CLEAR     79  52  38 W10G18    29.61R
6HR MIN TEMP:  79; 6HR MAX TEMP:  83;


$$

MSZ076-079-250100-
INTERIOR SOUTHEAST MISSISSIPPI

CITY           SKY/WX    TMP DP  RH WIND       PRES   REMARKS
LEAKESVILLE*   NOT AVBL
AGRICOLA*        N/A     72  50  46 NW3       29.65R

$$

MARINE OBSERVATIONS

STATION/POSITION TIME  TEMP    WIND        PRES    WAVE
                       AIR SEA DIR/SP/G            HT/PER
                 (UTC) (F)     (DEG/KT/KT) (MB)    (FT/S)
PASCAGOULA       2348   74     290/ 13/ 19 1003.9R
PETIT BOIS ISLND 2348   74     300/ 21/ 25 1004.7R
GRAND BAY        2230   76     290/ 11     1004.0S
KATRINA CUT      2330   75     280/ 21     1003.4F
CEDAR POINT      2330   75     280/ 17     1003.4S
E DAUPHIN ISLAND 2300   75     250/  9/ 13 1003.5S
MIDDLE BAY LIGHT 2330   75     290/ 16     1003.4S
USCG MOBILE BAY  2348   74 78  290/  7/ 14 1004.2R
STATE DOCKS      2348                      1003.5R
MEAHER PARK      2330   74     270/ 11     1003.0R
FORT MORGAN      2348   75     270/ 20/ 24   N/A
12 S ORANGE BCH  2250   75 78  290/ 17/ 21 1003.0R   4/ 7
PENSACOLA BAY    2348                      1003.5R
64 S DAUPHIN ISL 2350   74 78  270/ 16/ 21 1005.3S   4/ 5
67 S FORT MORGAN 2330   73        CALM     1005.1S

$$

SELECTED LOCATIONS ACROSS THE REGION

CITY           SKY/WX    TMP DP  RH WIND       PRES   REMARKS
NEW ORLEANS    PTCLDY    74  50  42 W12G20    29.68F
GULFPORT       CLEAR     74  50  42 W9        29.65R
PASCAGOULA AP  CLEAR     74  46  36 W7G20     29.65R
PASCAGOULA*    NOT AVBL
HATTIESBURG    CLEAR     70  47  43 W12       29.67R
LAUREL         NOT AVBL
MERIDIAN       PTCLDY    70  50  49 W9        29.63R
JACKSON        MOSUNNY   68  48  48 W10       29.67R
MONTGOMERY     MOCLDY    71  49  45 W13       29.59R
TROY           PTCLDY    72  54  53 NW12G18   29.59R
ASHFORD*         N/A     72  54  53 W6        29.61R
DOTHAN         PTCLDY    74  53  48 W18G28    29.59R
PANAMA CITY    CLEAR     76  57  51 SW18G26   29.57R

$$




USA.gov is the U.S. government's official web portal to all federal, state and local government web resources and services.